| time (UTC) | temp F | wind direction | speed MPH | gust MPH | rain 1hr in | rain 24hr in | rain mn in | humidity % | barometer mb |
| 20260831062118 | 0 | 203 | 3.0 | 5.0 | 0.00 | 0.00 | 0.00 | ||
| 20260831061130 | 0 | 113 | 1.0 | 2.0 | 0.00 | 0.00 | 0.00 | ||
| 20260831060209 | 0 | 135 | 5.0 | 8.0 | 0.00 | 0.00 | 0.00 | ||
| 20260831055118 | 0 | 113 | 3.0 | 6.0 | 0.00 | 0.00 | 0.00 | ||
| 20260831054156 | 0 | 90 | 4.0 | 7.0 | 0.00 | 0.00 | 0.00 | ||
| 20260831053129 | 0 | 113 | 7.0 | 9.0 | 0.00 | 0.00 | 0.00 | ||
| 20260831052118 | 0 | 90 | 3.0 | 6.0 | 0.00 | 0.00 | 0.00 | ||
| 20260831051201 | 0 | 90 | 3.0 | 4.0 | 0.00 | 0.00 | 0.00 | ||
| 20260831050130 | 0 | 68 | 5.0 | 9.0 | 0.00 | 0.00 | 0.00 | ||
| 20260831045139 | 0 | 135 | 3.0 | 8.0 | 0.00 | 0.00 | 0.00 | ||
| 20260831044136 | 0 | 113 | 5.0 | 7.0 | 0.00 | 0.00 | 0.00 | ||
| 20260831043130 | 0 | 90 | 4.0 | 9.0 | 0.00 | 0.00 | 0.00 | ||
| 20260831042139 | 0 | 113 | 6.0 | 12.0 | 0.00 | 0.00 | 0.00 | ||
| 20260831041216 | 0 | 113 | 3.0 | 6.0 | 0.00 | 0.00 | 0.00 | ||
| 20260831040129 | 0 | 113 | 4.0 | 10.0 | 0.00 | 0.00 | 0.00 | ||
| 20260831035123 | 0 | 135 | 8.0 | 11.0 | 0.00 | 0.00 | 0.00 | ||
| 20260831034130 | 0 | 90 | 3.0 | 6.0 | 0.00 | 0.00 | 0.00 | ||
| 20260831033128 | 0 | 90 | 4.0 | 9.0 | 0.00 | 0.00 | 0.00 | ||
| 20260831032119 | 0 | 68 | 6.0 | 10.0 | 0.00 | 0.00 | 0.00 | ||
| 20260831031129 | 0 | 68 | 5.0 | 8.0 | 0.00 | 0.00 | 0.00 | ||
| 20260831030128 | 0 | 90 | 5.0 | 11.0 | 0.00 | 0.00 | 0.00 | ||
| 20260831025138 | 0 | 45 | 4.0 | 7.0 | 0.00 | 0.00 | 0.00 | ||
| 20260831024130 | 0 | 90 | 4.0 | 7.0 | 0.00 | 0.00 | 0.00 | ||
| 20260831023128 | 0 | 90 | 5.0 | 10.0 | 0.00 | 0.00 | 0.00 | ||
| 20260831022138 | 0 | 90 | 3.0 | 7.0 | 0.00 | 0.00 | 0.00 | ||
| 20260831021130 | 0 | 113 | 3.0 | 7.0 | 0.00 | 0.00 | 0.00 | ||
| 20260831020148 | 0 | 113 | 4.0 | 7.0 | 0.00 | 0.00 | 0.00 | ||
| 20260831015118 | 0 | 113 | 4.0 | 6.0 | 0.00 | 0.00 | 0.00 | ||
| 20260831014155 | 0 | 113 | 7.0 | 11.0 | 0.00 | 0.00 | 0.00 | ||
| 20260831013128 | 0 | 158 | 3.0 | 4.0 | 0.00 | 0.00 | 0.00 | ||
| 20260831012118 | 0 | 158 | 2.0 | 4.0 | 0.00 | 0.00 | 0.00 | ||
| 20260831011130 | 0 | 135 | 4.0 | 8.0 | 0.00 | 0.00 | 0.00 | ||
| 20260831010148 | 0 | 158 | 3.0 | 4.0 | 0.00 | 0.00 | 0.00 | ||
| 20260831005118 | 0 | 158 | 7.0 | 13.0 | 0.00 | 0.00 | 0.00 | ||
| 20260831004151 | 0 | 135 | 2.0 | 4.0 | 0.00 | 0.00 | 0.00 | ||
| 20260831003129 | 0 | 180 | 6.0 | 9.0 | 0.00 | 0.00 | 0.00 | ||
| 20260831002118 | 0 | 113 | 3.0 | 4.0 | 0.00 | 0.00 | 0.00 | ||
| 20260831001154 | 0 | 113 | 4.0 | 8.0 | 0.00 | 0.00 | 0.00 | ||
| 20260831000129 | 0 | 158 | 5.0 | 8.0 | 0.00 | 0.00 | 0.00 | ||
| 20260830235118 | 0 | 113 | 4.0 | 9.0 | 0.00 | 0.00 | 0.00 | ||
| 20260830234129 | 0 | 158 | 3.0 | 5.0 | 0.00 | 0.00 | 0.00 | ||
| 20260830233127 | 0 | 180 | 5.0 | 8.0 | 0.00 | 0.00 | 0.00 | ||
| 20260830232118 | 0 | 135 | 2.0 | 4.0 | 0.00 | 0.00 | 0.00 | ||
| 20260830231150 | 0 | 135 | 2.0 | 4.0 | 0.00 | 0.00 | 0.00 | ||
| 20260830230128 | 0 | 180 | 6.0 | 10.0 | 0.00 | 0.00 | 0.00 | ||
| 20260830225117 | 0 | 158 | 3.0 | 4.0 | 0.00 | 0.00 | 0.00 | ||
| 20260830224129 | 0 | 225 | 4.0 | 7.0 | 0.00 | 0.00 | 0.00 | ||
| 20260830223128 | 0 | 180 | 4.0 | 9.0 | 0.00 | 0.00 | 0.00 | ||
| 20260830222117 | 0 | 180 | 3.0 | 4.0 | 0.00 | 0.00 | 0.00 | ||
| 20260830221130 | 0 | 203 | 3.0 | 4.0 | 0.00 | 0.00 | 0.00 | ||
| 20260830220128 | 0 | 225 | 1.0 | 3.0 | 0.00 | 0.00 | 0.00 | ||
| 20260830215117 | 0 | 203 | 4.0 | 6.0 | 0.00 | 0.00 | 0.00 | ||
| 20260830214129 | 0 | 158 | 5.0 | 8.0 | 0.00 | 0.00 | 0.00 | ||
| 20260830213127 | 0 | 180 | 3.0 | 4.0 | 0.00 | 0.00 | 0.00 | ||
| 20260830212122 | 0 | 158 | 4.0 | 6.0 | 0.00 | 0.00 | 0.00 | ||
| 20260830211132 | 0 | 203 | 2.0 | 3.0 | 0.00 | 0.00 | 0.00 | ||
| 20260830210128 | 0 | 180 | 2.0 | 3.0 | 0.00 | 0.00 | 0.00 | ||
| 20260830205117 | 0 | 180 | 2.0 | 3.0 | 0.00 | 0.00 | 0.00 | ||
| 20260830204131 | 0 | 180 | 1.0 | 2.0 | 0.00 | 0.00 | 0.00 | ||
| 20260830203129 | 0 | 180 | 2.0 | 3.0 | 0.00 | 0.00 | 0.00 | ||
| 20260830202117 | 0 | 180 | 2.0 | 2.0 | 0.00 | 0.00 | 0.00 | ||
| 20260830201131 | 0 | 203 | 3.0 | 4.0 | 0.00 | 0.00 | 0.00 | ||
| 20260830200213 | 0 | 225 | 2.0 | 2.0 | 0.00 | 0.00 | 0.00 | ||
| 20260830195127 | 0 | 225 | 2.0 | 3.0 | 0.00 | 0.00 | 0.00 | ||
| 20260830194130 | 0 | 225 | 2.0 | 3.0 | 0.00 | 0.00 | 0.00 | ||
| 20260830193152 | 0 | 225 | 2.0 | 3.0 | 0.00 | 0.00 | 0.00 | ||
| 20260830192117 | 0 | 203 | 2.0 | 3.0 | 0.00 | 0.00 | 0.00 | ||
| 20260830191130 | 0 | 203 | 2.0 | 4.0 | 0.00 | 0.00 | 0.00 | ||
| 20260830190127 | 0 | 203 | 2.0 | 3.0 | 0.00 | 0.00 | 0.00 | ||
| 20260830185117 | 0 | 203 | 2.0 | 4.0 | 0.00 | 0.00 | 0.00 | ||
| 20260830184131 | 0 | 203 | 2.0 | 3.0 | 0.00 | 0.00 | 0.00 | ||
| 20260830183127 | 0 | 203 | 4.0 | 6.0 | 0.00 | 0.00 | 0.00 | ||
| 20260830182117 | 0 | 203 | 2.0 | 3.0 | 0.00 | 0.00 | 0.00 | ||
| 20260830181129 | 0 | 203 | 2.0 | 3.0 | 0.00 | 0.00 | 0.00 | ||
| 20260830180128 | 0 | 203 | 1.0 | 2.0 | 0.00 | 0.00 | 0.00 | ||
| 20260830175119 | 0 | 203 | 2.0 | 3.0 | 0.00 | 0.00 | 0.00 | ||
| 20260830174134 | 0 | 203 | 2.0 | 3.0 | 0.00 | 0.00 | 0.00 | ||
| 20260830173127 | 0 | 203 | 3.0 | 5.0 | 0.00 | 0.00 | 0.00 | ||
| 20260830172117 | 0 | 203 | 2.0 | 3.0 | 0.00 | 0.00 | 0.00 | ||
| 20260830171129 | 0 | 0.0 | 1.0 | 0.00 | 0.00 | 0.00 | |||
| 20260830170127 | 0 | 225 | 1.0 | 2.0 | 0.00 | 0.00 | 0.00 | ||
| 20260830165137 | 0 | 225 | 2.0 | 3.0 | 0.00 | 0.00 | 0.00 | ||
| 20260830164128 | 0 | 203 | 3.0 | 4.0 | 0.00 | 0.00 | 0.00 | ||
| 20260830163127 | 0 | 203 | 2.0 | 2.0 | 0.00 | 0.00 | 0.00 | ||
| 20260830162116 | 0 | 203 | 1.0 | 2.0 | 0.00 | 0.00 | 0.00 | ||
| 20260830161130 | 0 | 0.0 | 1.0 | 0.00 | 0.00 | 0.00 | |||
| 20260830160127 | 0 | 203 | 1.0 | 1.0 | 0.00 | 0.00 | 0.00 | ||
| 20260830155116 | 0 | 203 | 1.0 | 2.0 | 0.00 | 0.00 | 0.00 | ||
| 20260830154128 | 0 | 203 | 1.0 | 2.0 | 0.00 | 0.00 | 0.00 | ||
| 20260830153132 | 0 | 203 | 1.0 | 2.0 | 0.00 | 0.00 | 0.00 | ||
| 20260830152119 | 0 | 203 | 1.0 | 2.0 | 0.00 | 0.00 | 0.00 | ||
| 20260830151132 | 0 | 203 | 2.0 | 3.0 | 0.00 | 0.00 | 0.00 | ||
| 20260830150128 | 0 | 225 | 1.0 | 2.0 | 0.00 | 0.00 | 0.00 | ||
| 20260830145121 | 0 | 225 | 3.0 | 4.0 | 0.00 | 0.00 | 0.00 | ||
| 20260830144131 | 0 | 225 | 1.0 | 2.0 | 0.00 | 0.00 | 0.00 | ||
| 20260830143130 | 0 | 225 | 2.0 | 4.0 | 0.00 | 0.00 | 0.00 | ||
| 20260830142118 | 0 | 225 | 1.0 | 2.0 | 0.00 | 0.00 | 0.00 | ||
| 20260830141133 | 0 | 225 | 1.0 | 1.0 | 0.00 | 0.00 | 0.00 | ||
| 20260830140129 | 0 | 225 | 1.0 | 1.0 | 0.00 | 0.00 | 0.00 | ||
| 20260830135118 | 0 | 225 | 1.0 | 2.0 | 0.00 | 0.00 | 0.00 | ||
| 20260830134129 | 0 | 225 | 1.0 | 2.0 | 0.00 | 0.00 | 0.00 | ||
| 20260830133148 | 0 | 225 | 1.0 | 2.0 | 0.00 | 0.00 | 0.00 | ||
| 20260830132118 | 0 | 225 | 1.0 | 3.0 | 0.00 | 0.00 | 0.00 | ||
| 20260830131130 | 0 | 203 | 2.0 | 3.0 | 0.00 | 0.00 | 0.00 | ||
| 20260830130127 | 0 | 203 | 3.0 | 4.0 | 0.00 | 0.00 | 0.00 | ||
| 20260830125117 | 0 | 203 | 2.0 | 3.0 | 0.00 | 0.00 | 0.00 | ||
| 20260830124130 | 0 | 203 | 2.0 | 4.0 | 0.00 | 0.00 | 0.00 | ||
| 20260830123128 | 0 | 158 | 2.0 | 3.0 | 0.00 | 0.00 | 0.00 | ||
| 20260830122117 | 0 | 158 | 3.0 | 4.0 | 0.00 | 0.00 | 0.00 | ||
| 20260830121136 | 0 | 180 | 2.0 | 2.0 | 0.00 | 0.00 | 0.00 | ||
| 20260830120127 | 0 | 180 | 1.0 | 1.0 | 0.00 | 0.00 | 0.00 | ||
| 20260830115122 | 0 | 180 | 1.0 | 2.0 | 0.00 | 0.00 | 0.00 | ||
| 20260830114129 | 0 | 0.0 | 1.0 | 0.00 | 0.00 | 0.00 | |||
| 20260830113128 | 0 | 180 | 1.0 | 2.0 | 0.00 | 0.00 | 0.00 | ||
| 20260830112122 | 0 | 180 | 1.0 | 2.0 | 0.00 | 0.00 | 0.00 | ||
| 20260830111129 | 0 | 180 | 1.0 | 2.0 | 0.00 | 0.00 | 0.00 | ||
| 20260830110127 | 0 | 180 | 3.0 | 3.0 | 0.00 | 0.00 | 0.00 | ||
| 20260830105122 | 0 | 180 | 2.0 | 3.0 | 0.00 | 0.00 | 0.00 | ||
| 20260830104130 | 0 | 180 | 1.0 | 1.0 | 0.00 | 0.00 | 0.00 | ||
| 20260830103128 | 0 | 180 | 1.0 | 2.0 | 0.00 | 0.00 | 0.00 | ||
| 20260830102117 | 0 | 180 | 2.0 | 3.0 | 0.00 | 0.00 | 0.00 | ||
| 20260830101132 | 0 | 180 | 2.0 | 2.0 | 0.00 | 0.00 | 0.00 | ||
| 20260830100126 | 0 | 180 | 2.0 | 3.0 | 0.00 | 0.00 | 0.00 | ||
| 20260830095117 | 0 | 180 | 3.0 | 5.0 | 0.00 | 0.00 | 0.00 | ||
| 20260830094137 | 0 | 180 | 2.0 | 5.0 | 0.00 | 0.00 | 0.00 | ||
| 20260830093128 | 0 | 180 | 2.0 | 2.0 | 0.00 | 0.00 | 0.00 | ||
| 20260830092117 | 0 | 180 | 1.0 | 1.0 | 0.00 | 0.00 | 0.00 | ||
| 20260830091135 | 0 | 180 | 3.0 | 5.0 | 0.00 | 0.00 | 0.00 | ||
| 20260830090127 | 0 | 180 | 3.0 | 4.0 | 0.00 | 0.00 | 0.00 | ||
| 20260830085117 | 0 | 180 | 3.0 | 5.0 | 0.00 | 0.00 | 0.00 | ||
| 20260830084134 | 0 | 180 | 3.0 | 6.0 | 0.00 | 0.00 | 0.00 | ||
| 20260830083128 | 0 | 158 | 3.0 | 4.0 | 0.00 | 0.00 | 0.00 | ||
| 20260830082116 | 0 | 158 | 3.0 | 4.0 | 0.00 | 0.00 | 0.00 | ||
| 20260830081140 | 0 | 180 | 3.0 | 4.0 | 0.00 | 0.00 | 0.00 | ||
| 20260830080127 | 0 | 158 | 2.0 | 4.0 | 0.00 | 0.00 | 0.00 | ||
| 20260830075117 | 0 | 158 | 3.0 | 4.0 | 0.00 | 0.00 | 0.00 | ||
| 20260830074135 | 0 | 203 | 3.0 | 4.0 | 0.00 | 0.00 | 0.00 | ||
| 20260830073127 | 0 | 135 | 5.0 | 10.0 | 0.00 | 0.00 | 0.00 | ||
| 20260830072116 | 0 | 113 | 2.0 | 4.0 | 0.00 | 0.00 | 0.00 | ||
| 20260830071129 | 0 | 135 | 2.0 | 3.0 | 0.00 | 0.00 | 0.00 | ||
| 20260830070129 | 0 | 180 | 3.0 | 5.0 | 0.00 | 0.00 | 0.00 | ||
| 20260830065116 | 0 | 90 | 4.0 | 8.0 | 0.00 | 0.00 | 0.00 | ||
| 20260830064132 | 0 | 135 | 5.0 | 9.0 | 0.00 | 0.00 | 0.00 | ||
| 20260830063126 | 0 | 113 | 3.0 | 10.0 | 0.00 | 0.00 | 0.00 |